When you browse on this site, cookies collect data to enhance your experience and personalize the content and advertising you see.
Visit our Privacy Policy to learn more. By continuing to use the site, you agree to this use of cookies and data.
  • Em Portugal
  • Lista de países
  • Para 7 dias
  • Temperatura da água
  • Mapa do tempo
  • Widgets de tempo
  • user-avatar
    Iniciar Sessão

    Previsão horária em Venkrang

    Hoje, 1 Abril, Quarta-feira

    Tempo Temperatura Precipitação Vento Pressão Humidade
    00:00 -1°C° 0 mm 1 m/s 723 mmHg 79%
    01:00 -1°C° 0 mm 1 m/s 722 mmHg 79%
    02:00 -2°C° 0 mm 1 m/s 722 mmHg 79%
    03:00 -2°C° 0 mm 1 m/s 721 mmHg 79%
    04:00 -1°C° 0 mm 1 m/s 721 mmHg 76%
    05:00 -1°C° 0 mm 1 m/s 721 mmHg 73%
    06:00 0°C° 0 mm 1 m/s 722 mmHg 67%
    07:00 +2°C° 0 mm 1 m/s 722 mmHg 61%
    08:00 +4°C° 0 mm 1 m/s 722 mmHg 54%
    09:00 +6°C° 0 mm 1 m/s 722 mmHg 48%
    10:00 +7°C° 0 mm 1 m/s 721 mmHg 46%
    11:00 +9°C° 0 mm 1 m/s 721 mmHg 44%
    12:00 +10°C° 0 mm 1 m/s 721 mmHg 42%
    13:00 +10°C° 0 mm 1 m/s 720 mmHg 43%
    14:00 +10°C° 0 mm 1 m/s 720 mmHg 44%
    15:00 +10°C° 0 mm 1 m/s 719 mmHg 46%
    16:00 +7°C° 0 mm 2 m/s 719 mmHg 54%
    17:00 +5°C° 0 mm 2 m/s 718 mmHg 63%
    18:00 +3°C° 0 mm 2 m/s 718 mmHg 72%
    19:00 +2°C° 0 mm 2 m/s 718 mmHg 74%
    20:00 +1°C° 0 mm 2 m/s 718 mmHg 76%
    21:00 +1°C° 0 mm 1 m/s 718 mmHg 79%
    22:00 0°C° 0 mm 1 m/s 718 mmHg 79%
    23:00 0°C° 0 mm 1 m/s 717 mmHg 79%

    Amanhã, 2 Abril, Quinta-feira

    Tempo Temperatura Precipitação Vento Pressão Humidade
    00:00 0°C° 0 mm 1 m/s 717 mmHg 78%
    01:00 -1°C° 0 mm 1 m/s 717 mmHg 81%
    02:00 -1°C° 0 mm 1 m/s 717 mmHg 84%
    03:00 -1°C° 0 mm 1 m/s 717 mmHg 86%
    04:00 -1°C° 0 mm 1 m/s 717 mmHg 85%
    05:00 0°C° 0 mm 1 m/s 717 mmHg 84%
    06:00 0°C° 0 mm 1 m/s 716 mmHg 83%
    07:00 +2°C° 0 mm 1 m/s 717 mmHg 74%
    08:00 +4°C° 0 mm 1 m/s 717 mmHg 65%
    09:00 +7°C° 0 mm 1 m/s 717 mmHg 56%
    10:00 +6°C° 0 mm 2 m/s 717 mmHg 54%
    11:00 +7°C° 0 mm 2 m/s 717 mmHg 52%
    12:00 +8°C° 0 mm 3 m/s 716 mmHg 49%
    13:00 +8°C° 0 mm 3 m/s 716 mmHg 52%
    14:00 +7°C° 0 mm 4 m/s 715 mmHg 55%
    15:00 +6°C° 0 mm 4 m/s 715 mmHg 58%
    16:00 +5°C° 0 mm 4 m/s 715 mmHg 64%
    17:00 +3°C° 0 mm 3 m/s 714 mmHg 70%
    18:00 +2°C° 0 mm 3 m/s 714 mmHg 76%
    19:00 +2°C° 0 mm 3 m/s 714 mmHg 80%
    20:00 +2°C° 0 mm 2 m/s 715 mmHg 85%
    21:00 +1°C° 0 mm 2 m/s 715 mmHg 89%
    22:00 +1°C° 0 mm 2 m/s 715 mmHg 90%
    23:00 +1°C° 0 mm 3 m/s 715 mmHg 91%

    Depois de amanhã, 3 Abril, Sexta-feira

    Tempo Temperatura Precipitação Vento Pressão Humidade
    00:00 +1°C° 0 mm 3 m/s 715 mmHg 92%
    01:00 +1°C° 0.1 mm 3 m/s 715 mmHg 93%
    02:00 +1°C° 0.1 mm 3 m/s 715 mmHg 94%
    03:00 +2°C° 0.1 mm 3 m/s 715 mmHg 95%
    04:00 +2°C° 0.1 mm 3 m/s 715 mmHg 95%
    05:00 +2°C° 0.1 mm 3 m/s 716 mmHg 96%
    06:00 +2°C° 0.1 mm 3 m/s 716 mmHg 96%
    07:00 +2°C° 0.1 mm 3 m/s 716 mmHg 94%
    08:00 +3°C° 0.1 mm 3 m/s 716 mmHg 92%
    09:00 +3°C° 0.1 mm 3 m/s 717 mmHg 90%
    10:00 +4°C° 0.1 mm 3 m/s 717 mmHg 83%
    11:00 +5°C° 0.1 mm 4 m/s 717 mmHg 76%
    12:00 +7°C° 0.1 mm 4 m/s 718 mmHg 68%
    13:00 +7°C° 0.1 mm 4 m/s 718 mmHg 70%
    14:00 +6°C° 0.1 mm 4 m/s 717 mmHg 72%
    15:00 +7°C° 0.1 mm 3 m/s 717 mmHg 73%
    16:00 +5°C° 0.1 mm 3 m/s 717 mmHg 78%
    17:00 +5°C° 0.1 mm 2 m/s 718 mmHg 82%
    18:00 +4°C° 0.1 mm 2 m/s 718 mmHg 87%
    19:00 +3°C° 0 mm 2 m/s 718 mmHg 88%
    20:00 +2°C° 0 mm 2 m/s 719 mmHg 89%
    21:00 +2°C° 0 mm 1 m/s 719 mmHg 91%
    22:00 +1°C° 0 mm 1 m/s 719 mmHg 91%
    23:00 0°C° 0 mm 1 m/s 719 mmHg 91%

    4 Abril, Sábado

    Tempo Temperatura Precipitação Vento Pressão Humidade
    00:00 0°C° 0 mm 1 m/s 719 mmHg 91%
    01:00 -1°C° 0 mm 1 m/s 720 mmHg 91%
    02:00 -1°C° 0 mm 1 m/s 720 mmHg 91%
    03:00 -1°C° 0 mm 1 m/s 720 mmHg 90%
    04:00 -1°C° 0 mm 1 m/s 720 mmHg 89%
    05:00 0°C° 0 mm 1 m/s 721 mmHg 87%
    06:00 0°C° 0 mm 1 m/s 721 mmHg 86%
    07:00 +2°C° 0 mm 1 m/s 721 mmHg 77%
    08:00 +5°C° 0 mm 1 m/s 722 mmHg 69%
    09:00 +6°C° 0 mm 2 m/s 722 mmHg 61%
    10:00 +7°C° 0 mm 2 m/s 722 mmHg 58%
    11:00 +9°C° 0 mm 2 m/s 722 mmHg 54%
    12:00 +10°C° 0 mm 2 m/s 723 mmHg 51%
    13:00 +10°C° 0 mm 2 m/s 722 mmHg 52%
    14:00 +10°C° 0 mm 2 m/s 722 mmHg 52%
    15:00 +12°C° 0 mm 2 m/s 721 mmHg 53%
    16:00 +9°C° 0 mm 2 m/s 721 mmHg 60%
    17:00 +8°C° 0 mm 2 m/s 721 mmHg 67%
    18:00 +6°C° 0 mm 2 m/s 721 mmHg 74%
    19:00 +5°C° 0 mm 2 m/s 721 mmHg 78%
    20:00 +4°C° 0 mm 2 m/s 721 mmHg 81%
    21:00 +2°C° 0 mm 3 m/s 721 mmHg 85%
    22:00 +2°C° 0 mm 3 m/s 721 mmHg 85%
    23:00 +2°C° 0 mm 3 m/s 721 mmHg 86%

    5 Abril, Domingo

    Tempo Temperatura Precipitação Vento Pressão Humidade
    00:00 +2°C° 0 mm 3 m/s 721 mmHg 86%
    01:00 +2°C° 0 mm 3 m/s 721 mmHg 87%
    02:00 +2°C° 0 mm 3 m/s 721 mmHg 87%
    03:00 +1°C° 0 mm 3 m/s 721 mmHg 88%
    04:00 +2°C° 0 mm 3 m/s 721 mmHg 87%
    05:00 +1°C° 0 mm 4 m/s 721 mmHg 86%
    06:00 +1°C° 0 mm 4 m/s 721 mmHg 85%
    07:00 +4°C° 0 mm 4 m/s 721 mmHg 79%
    08:00 +6°C° 0 mm 5 m/s 721 mmHg 73%
    09:00 +8°C° 0 mm 5 m/s 721 mmHg 66%
    10:00 +10°C° 0 mm 5 m/s 721 mmHg 64%
    11:00 +12°C° 0 mm 5 m/s 721 mmHg 62%
    12:00 +14°C° 0 mm 6 m/s 721 mmHg 59%
    13:00 +14°C° 0 mm 6 m/s 721 mmHg 59%
    14:00 +15°C° 0 mm 5 m/s 720 mmHg 58%
    15:00 +15°C° 0 mm 5 m/s 720 mmHg 58%
    16:00 +13°C° 0 mm 4 m/s 720 mmHg 65%
    17:00 +12°C° 0 mm 4 m/s 719 mmHg 72%
    18:00 +11°C° 0 mm 3 m/s 719 mmHg 79%
    19:00 +10°C° 0 mm 3 m/s 719 mmHg 79%
    20:00 +9°C° 0 mm 3 m/s 719 mmHg 80%
    21:00 +8°C° 0 mm 3 m/s 719 mmHg 80%
    22:00 +7°C° 0 mm 3 m/s 719 mmHg 80%
    23:00 +7°C° 0 mm 3 m/s 719 mmHg 81%

    6 Abril, Segunda-feira

    Tempo Temperatura Precipitação Vento Pressão Humidade
    00:00 +5°C° 0 mm 3 m/s 719 mmHg 82%
    01:00 +5°C° 0 mm 3 m/s 719 mmHg 83%
    02:00 +5°C° 0 mm 3 m/s 719 mmHg 84%
    03:00 +4°C° 0 mm 3 m/s 719 mmHg 85%
    04:00 +5°C° 0 mm 3 m/s 719 mmHg 84%
    05:00 +5°C° 0 mm 3 m/s 720 mmHg 83%
    06:00 +5°C° 0 mm 4 m/s 720 mmHg 82%
    07:00 +7°C° 0 mm 5 m/s 720 mmHg 72%
    08:00 +9°C° 0 mm 6 m/s 721 mmHg 62%
    09:00 +11°C° 0 mm 6 m/s 721 mmHg 51%
    10:00 +13°C° 0 mm 6 m/s 721 mmHg 51%
    11:00 +14°C° 0 mm 6 m/s 721 mmHg 50%
    12:00 +15°C° 0 mm 6 m/s 722 mmHg 49%
    13:00 +15°C° 0 mm 6 m/s 722 mmHg 51%
    14:00 +15°C° 0 mm 6 m/s 722 mmHg 52%
    15:00 +15°C° 0 mm 6 m/s 722 mmHg 54%
    16:00 +13°C° 0 mm 5 m/s 722 mmHg 62%
    17:00 +12°C° 0 mm 4 m/s 722 mmHg 70%
    18:00 +10°C° 0 mm 3 m/s 722 mmHg 79%
    19:00 +9°C° 0 mm 2 m/s 723 mmHg 81%
    20:00 +9°C° 0 mm 2 m/s 723 mmHg 83%
    21:00 +8°C° 0 mm 2 m/s 724 mmHg 85%
    22:00 +8°C° 0 mm 2 m/s 724 mmHg 86%
    23:00 +8°C° 0 mm 2 m/s 724 mmHg 87%
    Mostrar mais